EW9255 Weather Reports


time (UTC)temp
C
wind
direction
speed
KPH
gust
KPH
rain 1hr
cm
rain 24hr
cm
rain mn
cm
humidity
%
barometer
mb
20190318232204 1 309 0.0 0.0 0.00 0.05 0.00 89 1020.5
20190318231705 1 309 0.0 0.0 0.00 0.05 0.00 89 1020.5
20190318231205 1 309 0.0 0.0 0.00 0.05 0.00 89 1020.5
20190318230706 1 309 0.0 0.0 0.00 0.05 0.00 89 1020.6
20190318230205 1 309 0.0 0.0 0.00 0.05 0.05 88 1020.5
20190318225705 1 309 0.0 0.0 0.00 0.05 0.05 88 1020.6
20190318225205 1 309 0.0 0.0 0.00 0.05 0.05 88 1020.6
20190318224705 1 309 0.0 1.6 0.00 0.05 0.05 88 1020.7
20190318224205 1 309 0.0 4.8 0.00 0.08 0.05 88 1020.7
20190318223705 1 309 0.0 4.8 0.00 0.08 0.05 88 1020.5
20190318223204 1 309 0.0 4.8 0.00 0.08 0.05 88 1020.5
20190318222705 1 310 0.0 4.8 0.00 0.08 0.05 88 1020.6
20190318222205 1 334 0.0 4.8 0.00 0.08 0.05 88 1020.5
20190318221704 1 332 0.0 6.4 0.00 0.08 0.05 87 1020.5
20190318221205 1 293 0.0 6.4 0.00 0.08 0.05 87 1020.4
20190318220705 1 283 0.0 6.4 0.00 0.08 0.05 87 1020.3
20190318220205 1 314 0.0 4.8 0.00 0.08 0.05 87 1020.3
20190318215705 1 328 0.0 4.8 0.00 0.08 0.05 87 1020.3
20190318215205 1 324 0.0 4.8 0.00 0.08 0.05 87 1020.3
20190318214704 1 324 0.0 4.8 0.00 0.08 0.05 88 1020.3
20190318214204 1 331 0.0 4.8 0.00 0.08 0.05 88 1020.3
20190318213705 1 328 0.0 1.6 0.00 0.08 0.05 88 1020.3
20190318213204 1 314 0.0 0.0 0.00 0.08 0.05 88 1020.4
20190318212705 1 314 0.0 1.6 0.00 0.08 0.05 87 1020.4
20190318212205 2 314 0.0 1.6 0.00 0.10 0.05 87 1020.5
20190318211705 2 314 0.0 1.6 0.00 0.10 0.05 87 1020.4
20190318211205 2 314 0.0 1.6 0.00 0.13 0.05 87 1020.4
20190318210705 2 306 0.0 3.2 0.00 0.13 0.05 87 1020.3
20190318210205 2 306 0.0 4.8 0.00 0.13 0.05 88 1020.3
20190318205705 2 306 0.0 4.8 0.00 0.15 0.05 88 1020.2
20190318205205 2 314 0.0 4.8 0.00 0.15 0.05 88 1020.2
20190318204705 2 294 0.0 3.2 0.00 0.15 0.05 88 1020.2
20190318204205 2 283 0.0 4.8 0.00 0.15 0.05 88 1020.1
20190318203705 2 296 0.0 4.8 0.00 0.15 0.05 88 1020.2
20190318203205 2 255 0.0 4.8 0.00 0.15 0.05 87 1020.0
20190318202705 2 249 0.0 3.2 0.00 0.15 0.05 87 1019.8
20190318202205 2 249 0.0 4.8 0.00 0.15 0.05 86 1019.7
20190318201705 2 249 0.0 4.8 0.00 0.18 0.05 86 1019.7
20190318201205 2 271 0.0 4.8 0.00 0.18 0.05 86 1019.6
20190318200705 2 272 0.0 6.4 0.00 0.18 0.05 86 1019.6
20190318200205 2 266 0.0 9.7 0.00 0.20 0.05 86 1019.5
20190318195705 2 280 0.0 9.7 0.00 0.20 0.05 86 1019.6
20190318195205 2 282 0.0 9.7 0.00 0.23 0.05 86 1019.6
20190318194705 2 259 0.0 8.0 0.00 0.23 0.05 86 1019.4
20190318194205 2 336 1.6 6.4 0.00 0.25 0.05 85 1019.4
20190318193705 2 261 0.0 6.4 0.00 0.28 0.05 85 1019.5
20190318193205 2 319 0.0 4.8 0.00 0.28 0.05 85 1019.4
20190318192705 2 274 0.0 8.0 0.00 0.30 0.05 85 1019.3
20190318192205 2 274 0.0 8.0 0.00 0.33 0.05 84 1019.2
20190318191705 2 314 0.0 8.0 0.00 0.33 0.05 84 1019.2
20190318191205 3 333 0.0 4.8 0.00 0.33 0.05 83 1019.0
20190318190705 3 261 0.0 4.8 0.00 0.33 0.05 83 1019.1
20190318190204 3 250 0.0 4.8 0.00 0.33 0.05 82 1019.0
20190318185705 3 250 1.6 6.4 0.00 0.33 0.05 82 1019.0
20190318185205 3 223 1.6 6.4 0.00 0.33 0.05 81 1019.0
20190318184704 3 223 1.6 8.0 0.00 0.33 0.05 81 1019.0
20190318184205 3 216 0.0 8.0 0.00 0.33 0.05 80 1019.0
20190318183705 3 201 0.0 8.0 0.00 0.33 0.05 80 1019.0
20190318183205 3 191 1.6 8.0 0.00 0.33 0.05 80 1019.0
20190318182705 3 228 1.6 8.0 0.00 0.33 0.05 79 1019.0
20190318182206 3 221 1.6 8.0 0.00 0.33 0.05 78 1019.0
20190318181706 3 205 1.6 8.0 0.00 0.33 0.05 77 1018.8
20190318181205 3 210 0.0 6.4 0.00 0.33 0.05 76 1018.7
20190318180705 3 220 0.0 6.4 0.00 0.33 0.05 74 1018.6
20190318180205 4 220 0.0 6.4 0.00 0.33 0.05 73 1018.6
20190318175705 4 254 0.0 4.8 0.00 0.33 0.05 72 1018.5
20190318175205 4 254 0.0 4.8 0.00 0.33 0.05 71 1018.5
20190318174705 5 258 0.0 1.6 0.00 0.33 0.05 69 1018.5
20190318174205 5 307 0.0 0.0 0.00 0.33 0.05 68 1018.5
20190318173705 5 307 0.0 0.0 0.00 0.33 0.05 68 1018.4
20190318173205 5 307 0.0 0.0 0.00 0.33 0.05 66 1018.2
20190318172705 5 307 0.0 1.6 0.00 0.33 0.05 64 1018.3
20190318172205 6 307 0.0 1.6 0.00 0.33 0.05 64 1018.3
20190318171705 6 307 0.0 3.2 0.00 0.33 0.05 63 1018.2
20190318171205 6 314 0.0 3.2 0.00 0.33 0.05 63 1018.2
20190318170705 6 314 0.0 4.8 0.00 0.33 0.05 61 1018.2
20190318170205 7 314 0.0 4.8 0.00 0.33 0.05 60 1018.1
20190318165705 7 314 0.0 4.8 0.00 0.33 0.05 58 1018.1
20190318165205 7 319 0.0 6.4 0.00 0.33 0.05 58 1018.2
20190318164704 8 271 0.0 8.0 0.00 0.33 0.05 57 1018.3
20190318164205 8 279 1.6 8.0 0.00 0.33 0.05 56 1018.2
20190318163705 8 225 1.6 8.0 0.00 0.33 0.05 56 1018.3
20190318163205 8 222 1.6 8.0 0.00 0.33 0.05 58 1018.1
20190318162705 8 213 1.6 6.4 0.00 0.33 0.05 57 1018.1
20190318162205 8 314 0.0 8.0 0.00 0.33 0.05 57 1018.0
20190318161705 8 2 1.6 14.5 0.00 0.33 0.05 58 1017.9
20190318161205 8 292 3.2 14.5 0.00 0.33 0.05 57 1017.9
20190318160706 8 285 3.2 19.3 0.00 0.33 0.05 55 1017.8
20190318160205 8 347 3.2 19.3 0.00 0.33 0.05 56 1017.7
20190318155705 8 186 3.2 14.5 0.00 0.33 0.05 55 1017.7
20190318155205 8 294 3.2 16.1 0.00 0.33 0.05 57 1017.7
20190318154705 8 236 3.2 16.1 0.00 0.33 0.05 59 1017.7
20190318154205 8 274 3.2 16.1 0.00 0.33 0.05 59 1017.6
20190318153704 8 231 3.2 14.5 0.00 0.33 0.05 62 1017.4
20190318153205 7 254 3.2 14.5 0.00 0.33 0.05 64 1017.3
20190318152705 7 224 3.2 11.3 0.00 0.33 0.05 65 1017.2
20190318152205 6 230 1.6 8.0 0.00 0.33 0.05 65 1017.1
20190318151705 6 267 1.6 11.3 0.00 0.33 0.05 67 1016.9
20190318151205 6 203 3.2 17.7 0.00 0.33 0.05 65 1017.0
20190318150705 6 280 3.2 17.7 0.00 0.33 0.05 66 1016.9
20190318150205 6 10 4.8 17.7 0.00 0.33 0.05 66 1017.0
20190318145705 7 328 4.8 17.7 0.00 0.33 0.05 63 1016.9
20190318145205 7 230 4.8 16.1 0.00 0.33 0.05 62 1017.1
20190318144705 7 330 3.2 11.3 0.00 0.33 0.05 63 1016.9
20190318144205 7 343 3.2 17.7 0.00 0.33 0.05 66 1016.9
20190318143704 6 254 4.8 17.7 0.00 0.33 0.05 63 1016.9
20190318143205 6 299 4.8 17.7 0.00 0.33 0.05 63 1016.8
20190318142705 6 251 6.4 19.3 0.00 0.33 0.05 63 1016.8
20190318142205 7 200 6.4 19.3 0.00 0.33 0.05 62 1016.6
20190318141705 7 319 4.8 19.3 0.00 0.33 0.05 64 1016.5
20190318141205 6 333 4.8 17.7 0.00 0.33 0.05 64 1016.5
20190318140705 7 277 4.8 17.7 0.00 0.33 0.05 62 1016.5
20190318140205 7 337 4.8 17.7 0.00 0.33 0.05 64 1016.6
20190318135705 7 7 3.2 17.7 0.00 0.33 0.05 66 1016.4
20190318135205 7 203 4.8 14.5 0.00 0.33 0.05 68 1016.3
20190318134705 6 349 6.4 19.3 0.00 0.33 0.05 65 1016.2
20190318134205 6 309 6.4 19.3 0.00 0.33 0.05 66 1016.1
20190318133705 7 197 4.8 19.3 0.00 0.33 0.05 69 1016.2
20190318133205 6 290 4.8 16.1 0.00 0.33 0.05 75 1016.1
20190318132705 6 260 3.2 11.3 0.00 0.33 0.05 81 1016.0
20190318132206 6 300 1.6 9.7 0.03 0.33 0.05 89 1015.9
20190318131704 5 281 1.6 9.7 0.05 0.33 0.05 91 1015.8
20190318131205 4 340 1.6 9.7 0.05 0.33 0.05 90 1015.6
20190318130705 4 292 0.0 6.4 0.05 0.33 0.05 91 1015.7
20190318130204 3 276 0.0 3.2 0.05 0.33 0.05 92 1015.7
20190318125705 3 283 0.0 3.2 0.05 0.33 0.05 91 1015.7
20190318125205 3 283 0.0 3.2 0.05 0.33 0.05 92 1015.6
20190318124705 3 283 0.0 1.6 0.05 0.33 0.05 93 1015.7
20190318124205 2 283 0.0 1.6 0.05 0.33 0.05 92 1015.6
20190318123705 2 283 0.0 8.0 0.05 0.33 0.05 90 1015.6
20190318123205 2 283 0.0 22.5 0.05 0.33 0.05 88 1015.7
20190318122705 2 283 4.8 22.5 0.03 0.33 0.05 86 1015.9
20190318122205 3 309 9.7 22.5 0.05 0.33 0.05 82 1016.1
20190318121707 5 272 8.0 20.9 0.03 0.30 0.03 77 1016.5
20190318121206 6 350 4.8 16.1 0.03 0.33 0.03 77 1016.7
20190318120705 6 226 4.8 16.1 0.03 0.33 0.03 83 1015.9
20190318120205 6 229 3.2 16.1 0.03 0.33 0.03 83 1015.9
20190318115705 6 307 3.2 11.3 0.03 0.33 0.03 81 1015.7
20190318115205 5 216 3.2 9.7 0.03 0.33 0.03 84 1015.8
20190318114705 5 222 3.2 9.7 0.03 0.33 0.03 82 1015.8
20190318114205 5 260 3.2 9.7 0.03 0.33 0.03 86 1016.0
20190318113704 4 205 1.6 6.4 0.03 0.33 0.03 89 1015.9
20190318113205 4 197 0.0 14.5 0.03 0.33 0.03 87 1015.8
20190318112704 4 330 0.0 20.9 0.03 0.33 0.03 83 1016.0
20190318112205 4 328 4.8 20.9 0.00 0.30 0.00 80 1016.1
20190318111705 5 345 4.8 20.9 0.00 0.30 0.00 78 1016.2
20190318111205 5 347 1.6 6.4 0.00 0.30 0.00 78 1016.2
20190318110704 5 345 0.0 6.4 0.00 0.30 0.00 78 1015.9
20190318110205 5 8 0.0 9.7 0.00 0.30 0.00 78 1015.8
20190318105705 5 15 1.6 9.7 0.00 0.30 0.00 78 1015.6
20190318105205 5 18 3.2 9.7 0.00 0.30 0.00 78 1015.8
20190318104705 5 30 1.6 6.4 0.00 0.30 0.00 77 1015.8
20190318104204 5 276 1.6 9.7 0.00 0.30 0.00 80 1015.7
20190318103705 5 289 1.6 9.7 0.00 0.30 0.00 79 1015.5
20190318103205 5 281 1.6 9.7 0.00 0.30 0.00 79 1015.6
20190318102704 5 357 1.6 8.0 0.00 0.30 0.00 79 1015.6
20190318102204 5 314 1.6 11.3 0.00 0.30 0.00 81 1015.6
20190318101704 5 332 0.0 14.5 0.00 0.30 0.00 81 1015.5
20190318101205 5 251 3.2 14.5 0.00 0.30 0.00 81 1015.5
20190318100705 5 268 3.2 8.0 0.00 0.30 0.00 81 1015.4
20190318100205 5 324 1.6 9.7 0.00 0.30 0.00 82 1015.4
20190318095704 5 324 1.6 9.7 0.00 0.30 0.00 83 1015.2
20190318095205 5 268 1.6 9.7 0.00 0.30 0.00 83 1015.2
20190318094705 5 280 1.6 4.8 0.00 0.30 0.00 84 1015.0
20190318094204 4 346 1.6 4.8 0.00 0.30 0.00 85 1015.2
20190318093705 4 284 0.0 8.0 0.00 0.30 0.00 85 1015.2
20190318093205 4 324 0.0 9.7 0.00 0.30 0.00 86 1015.0
20190318092705 4 254 1.6 11.3 0.00 0.30 0.00 86 1015.2
20190318092205 4 229 3.2 11.3 0.00 0.30 0.00 85 1014.9
20190318091705 4 205 1.6 11.3 0.00 0.30 0.00 86 1015.0
20190318091205 4 232 1.6 11.3 0.00 0.30 0.00 89 1015.0
20190318090704 4 157 1.6 9.7 0.00 0.30 0.00 88 1015.0
20190318090205 3 207 1.6 9.7 0.00 0.30 0.00 89 1015.0
20190318085706 3 273 0.0 6.4 0.00 0.30 0.00 89 1014.8
20190318085205 3 357 0.0 6.4 0.00 0.30 0.00 90 1014.9
20190318084705 3 209 1.6 4.8 0.00 0.30 0.00 90 1014.8
20190318084205 3 215 1.6 6.4 0.00 0.30 0.00 91 1014.7
20190318083705 3 240 1.6 6.4 0.00 0.30 0.00 91 1014.7
20190318083205 3 191 1.6 6.4 0.00 0.30 0.00 91 1014.7
20190318082705 3 278 0.0 4.8 0.00 0.30 0.00 91 1014.6
20190318082205 3 228 0.0 8.0 0.00 0.30 0.00 91 1014.6
20190318081705 3 227 0.0 8.0 0.00 0.30 0.00 91 1014.6
20190318081205 3 227 0.0 8.0 0.00 0.30 0.00 92 1014.5
20190318080705 3 255 0.0 6.4 0.00 0.30 0.00 92 1014.4
20190318080205 2 256 0.0 6.4 0.00 0.30 0.00 92 1014.4
20190318075705 2 221 0.0 6.4 0.00 0.30 0.00 93 1014.3
20190318075205 2 221 0.0 3.2 0.00 0.30 0.00 93 1014.3
20190318074705 2 222 0.0 0.0 0.00 0.30 0.00 93 1014.1
20190318074205 2 222 0.0 0.0 0.00 0.30 0.00 93 1014.1
20190318073705 2 222 0.0 0.0 0.00 0.30 0.00 93 1014.2
20190318073205 2 222 0.0 1.6 0.00 0.30 0.00 93 1014.0
20190318072705 2 222 0.0 3.2 0.00 0.30 0.00 93 1013.9
20190318072205 2 222 0.0 4.8 0.00 0.30 0.00 93 1013.6
20190318071705 2 222 1.6 4.8 0.00 0.30 0.00 93 1013.7
20190318071205 2 224 1.6 4.8 0.00 0.30 0.00 93 1013.7
20190318070705 2 224 0.0 3.2 0.00 0.30 0.00 93 1013.7
20190318070205 2 224 0.0 0.0 0.00 0.30 0.00 93 1013.6
20190318065705 2 224 0.0 0.0 0.00 0.30 0.00 93 1013.8
20190318065205 2 224 0.0 0.0 0.00 0.30 0.00 93 1013.7
20190318064705 2 224 0.0 0.0 0.00 0.30 0.00 92 1013.7
20190318064205 2 224 0.0 0.0 0.00 0.30 0.00 92 1013.8
20190318063705 2 224 0.0 0.0 0.00 0.30 0.00 92 1013.8
20190318063205 2 224 0.0 0.0 0.00 0.30 0.00 92 1013.7
20190318062705 2 224 0.0 0.0 0.00 0.30 0.00 92 1013.7
20190318062205 2 224 0.0 0.0 0.00 0.30 0.00 92 1013.7
20190318061705 1 224 0.0 0.0 0.00 0.30 0.00 92 1013.5
20190318061205 1 224 0.0 0.0 0.00 0.30 0.00 92 1013.5
20190318060705 1 224 0.0 0.0 0.00 0.30 0.00 91 1013.5
20190318060205 1 224 0.0 3.2 0.00 0.30 0.00 91 1013.5
20190318055705 1 224 0.0 3.2 0.00 0.30 0.00 91 1013.2
20190318055205 1 224 0.0 1.6 0.00 0.30 0.00 91 1013.1
20190318054705 2 224 0.0 0.0 0.00 0.30 0.00 91 1013.2
20190318054205 2 224 0.0 0.0 0.00 0.30 0.00 91 1013.2
20190318053705 2 224 0.0 0.0 0.00 0.30 0.00 90 1013.1
20190318053205 2 224 0.0 0.0 0.00 0.30 0.00 90 1013.0
20190318052705 2 224 0.0 1.6 0.00 0.30 0.00 90 1013.1
20190318052205 2 224 0.0 1.6 0.00 0.30 0.00 90 1013.0
20190318051706 2 224 0.0 1.6 0.00 0.30 0.00 91 1013.0
20190318051205 2 224 0.0 1.6 0.00 0.30 0.00 91 1013.3
20190318050705 2 224 0.0 0.0 0.00 0.30 0.00 91 1013.1
20190318050205 2 224 0.0 0.0 0.00 0.30 0.00 90 1013.2
20190318045705 2 224 0.0 0.0 0.00 0.30 0.00 90 1013.2
20190318045205 2 224 0.0 4.8 0.00 0.30 0.00 90 1013.0
20190318044705 2 224 0.0 4.8 0.00 0.30 0.00 90 1013.0
20190318044205 2 224 0.0 6.4 0.00 0.30 0.00 90 1013.0
20190318043705 2 224 0.0 6.4 0.00 0.30 0.00 90 1013.1
20190318043205 2 228 0.0 6.4 0.00 0.30 0.00 90 1012.8
20190318042705 2 224 0.0 4.8 0.00 0.30 0.00 90 1012.3
20190318042205 2 224 0.0 4.8 0.00 0.30 0.00 90 1012.3
20190318041705 2 224 0.0 4.8 0.00 0.30 0.00 90 1012.6
20190318041205 2 224 0.0 4.8 0.00 0.30 0.00 90 1012.9
20190318040705 2 259 0.0 6.4 0.00 0.30 0.00 90 1012.8
20190318040205 2 260 0.0 6.4 0.00 0.30 0.00 90 1012.9
20190318035705 2 193 0.0 6.4 0.00 0.30 0.00 90 1012.8
20190318035205 2 182 0.0 6.4 0.00 0.30 0.00 90 1012.8
20190318034705 2 200 0.0 6.4 0.00 0.30 0.00 90 1012.5
20190318034205 2 233 1.6 6.4 0.00 0.30 0.00 90 1012.4
20190318033705 2 277 1.6 4.8 0.00 0.30 0.00 90 1012.4
20190318033205 2 243 0.0 8.0 0.00 0.30 0.00 90 1012.4
20190318032705 2 244 0.0 8.0 0.00 0.30 0.00 90 1012.4
20190318032205 2 212 0.0 8.0 0.00 0.30 0.00 89 1012.5
20190318031705 2 247 0.0 4.8 0.00 0.30 0.00 89 1012.5
20190318031205 2 224 0.0 11.3 0.00 0.30 0.00 89 1012.5
20190318030705 2 225 1.6 11.3 0.00 0.30 0.00 89 1012.5
20190318030205 2 222 1.6 11.3 0.00 0.30 0.00 90 1012.6
20190318025704 2 217 1.6 8.0 0.00 0.30 0.00 89 1012.8
20190318025205 2 227 1.6 6.4 0.00 0.30 0.00 89 1012.5
20190318024705 2 231 1.6 6.4 0.00 0.30 0.00 89 1012.5
20190318024205 2 230 0.0 11.3 0.00 0.30 0.00 89 1012.5
20190318023705 2 331 1.6 11.3 0.00 0.30 0.00 89 1012.4
20190318023204 2 269 1.6 11.3 0.00 0.30 0.00 89 1012.4
20190318022705 2 218 1.6 9.7 0.00 0.30 0.00 89 1012.4
20190318022205 2 224 1.6 9.7 0.00 0.30 0.00 89 1012.3
20190318021705 3 231 1.6 24.1 0.00 0.30 0.00 89 1012.2
20190318021205 3 205 3.2 24.1 0.00 0.30 0.00 90 1012.5
20190318020705 3 232 3.2 11.3 0.00 0.30 0.00 90 1012.5
20190318020205 3 224 1.6 11.3 0.00 0.30 0.00 90 1012.5
20190318015705 3 211 1.6 6.4 0.00 0.30 0.00 91 1012.5
20190318015205 3 199 0.0 16.1 0.00 0.30 0.00 91 1012.5
20190318014705 3 257 1.6 16.1 0.00 0.30 0.00 91 1012.5
20190318014205 3 324 1.6 16.1 0.00 0.30 0.00 91 1012.4
20190318013705 3 272 1.6 6.4 0.00 0.30 0.00 91 1012.4
20190318013205 3 226 0.0 8.0 0.00 0.30 0.00 91 1012.4
20190318012705 3 234 1.6 8.0 0.00 0.30 0.00 91 1012.5
20190318012205 3 230 1.6 11.3 0.00 0.30 0.00 91 1012.5
20190318011705 3 238 3.2 11.3 0.00 0.30 0.00 91 1012.5
20190318011205 3 239 3.2 8.0 0.00 0.30 0.00 91 1012.4
20190318010705 3 199 1.6 8.0 0.00 0.30 0.00 91 1012.2
20190318010205 3 211 1.6 8.0 0.00 0.30 0.00 91 1012.1
20190318005704 3 213 1.6 9.7 0.00 0.30 0.00 91 1012.1
20190318005205 3 205 1.6 9.7 0.00 0.30 0.00 91 1012.1
20190318004705 3 247 1.6 9.7 0.00 0.30 0.00 91 1012.2
20190318004205 3 262 1.6 9.7 0.00 0.30 0.00 91 1012.3
20190318003705 3 294 0.0 4.8 0.00 0.30 0.00 91 1012.1
20190318003205 3 244 0.0 4.8 0.00 0.30 0.00 91 1012.2
20190318002705 3 244 0.0 6.4 0.00 0.30 0.00 91 1012.3
20190318002205 3 244 0.0 6.4 0.00 0.30 0.00 91 1012.4
20190318001705 3 244 0.0 8.0 0.00 0.30 0.00 91 1012.4
20190318001205 3 277 0.0 8.0 0.00 0.30 0.00 91 1012.4
20190318000705 3 254 0.0 8.0 0.00 0.30 0.00 91 1012.3
20190318000205 3 314 1.6 11.3 0.00 0.30 0.00 91 1012.3
20190317235705 3 279 3.2 11.3 0.00 0.30 0.00 91 1012.4
20190317235205 3 230 4.8 11.3 0.00 0.30 0.00 91 1012.4
20190317234705 3 280 3.2 14.5 0.00 0.30 0.00 91 1012.4
20190317234205 3 289 3.2 14.5 0.03 0.30 0.00 91 1012.4
20190317233705 3 252 3.2 14.5 0.03 0.30 0.00 91 1012.1
20190317233205 3 288 3.2 11.3 0.03 0.30 0.00 92 1012.0
20190317232705 3 301 3.2 16.1 0.03 0.30 0.00 92 1012.1